This is the latest recevied weather packets stored in our database for station/object KA0WKG. If no packets are shown the sender has not sent any weather packets the latest 10 day(s).
| Time | Temp. | Humidity | Pressure | Rain* | Wind** | Luminosity | Snow |
|---|---|---|---|---|---|---|---|
| 1777824905 | 18.89° C | 38% | 1015.1 hPa | 0 mm | - | - | - |
| 1777821306 | 16.11° C | 42% | 1015.2 hPa | 0 mm | - | - | - |
| 1777819505 | 14.44° C | 46% | 1015.2 hPa | 0 mm | - | - | - |
| 1777818305 | 13.89° C | 48% | 1015.3 hPa | 0 mm | - | - | - |
| 1777817105 | 11.67° C | 53% | 1015.3 hPa | 0 mm | - | - | - |
| 1777815065 | 10.56° C | 60% | 1014.9 hPa | 0 mm | - | - | - |
| 1777811105 | 5.56° C | 66% | 1014 hPa | 0 mm | - | - | - |
| 1777810807 | 5° C | 68% | 1013.9 hPa | 0 mm | - | - | - |
| 1777806305 | 6.67° C | 57% | 1013.7 hPa | 0 mm | - | - | - |
| 1777803006 | 8.33° C | 52% | 1013.8 hPa | 0 mm | - | - | - |
| 1777802104 | 9.44° C | 49% | 1013.9 hPa | 0 mm | - | - | - |
| 1777801505 | 10.56° C | 45% | 1013.9 hPa | 0 mm | - | - | - |
| 1777800904 | 10.56° C | 46% | 1013.9 hPa | 0 mm | - | - | - |
| 1777799405 | 8.33° C | 53% | 1014 hPa | 0 mm | - | - | - |
| 1777797904 | 7.22° C | 60% | 1013.4 hPa | 0 mm | - | - | - |
| 1777797305 | 6.67° C | 60% | 1013.3 hPa | 0 mm | - | - | - |
| 1777796105 | 6.67° C | 61% | 1013.3 hPa | 0 mm | - | - | - |
| 1777795805 | 6.67° C | 60% | 1013.3 hPa | 0 mm | - | - | - |
| 1777793704 | 5.56° C | 64% | 1013.7 hPa | 0 mm | - | - | - |
| 1777793404 | 6.11° C | 64% | 1013.7 hPa | 0 mm | - | - | - |
| 1777792504 | 6.11° C | 63% | 1013.8 hPa | 0 mm | - | - | - |
| 1777791305 | 6.67° C | 61% | 1013.7 hPa | 0 mm | - | - | - |
| 1777786808 | 7.78° C | 55% | 1013.8 hPa | 0 mm | - | - | - |
| 1777784108 | 9.44° C | 50% | 1013.7 hPa | 0 mm | - | - | - |
| 1777781408 | 10° C | 49% | 1013.9 hPa | 0 mm | - | - | - |
* Rain latest hour (hover to see other rain measurements)
** Current wind speed in m/s (hover to see current wind gust speed)